Regional Weather Roundup
Issued by NWS

Home | Current Version | Previous Version | Graphics & Text | Print | Product List | Glossary On
Versions: 1 2 3 4 5 6 7 8 9 10 11 12 13 14 15 16 17 18 19 20 21 22 23 24 25 26 27 28 29 30 31 32 33 34 35 36 37 38 39 40 41 42 43 44 45 46 47 48 49 50
000
ASUS43 KBIS 201502
RWRND

NORTH DAKOTA REGIONAL WEATHER ROUNDUP
NATIONAL WEATHER SERVICE BISMARCK ND
1000 AM CDT SUN AUG 20 2017

NOTE: "FAIR" INDICATES FEW OR NO CLOUDS BELOW 12,000 FEET WITH NO
SIGNIFICANT WEATHER AND/OR OBSTRUCTIONS TO VISIBILITY.


NDZ001>003-009>011-017-201600-
NORTHWEST NORTH DAKOTA

CITY           SKY/WX    TMP DP  RH WIND       PRES   REMARKS
WILLISTON      CLOUDY    59  42  53 CALM      30.09F
MINOT          MOSUNNY   65  44  46 SW8       30.05R
MINOT AFB      CLOUDY    65  42  43 NW7       30.04R
$$

NDZ018>021-031>035-040>046-201600-
SOUTHWEST NORTH DAKOTA

CITY           SKY/WX    TMP DP  RH WIND       PRES   REMARKS
BISMARCK       CLOUDY    64  49  57 NW3       30.07R
DICKINSON      CLOUDY    57  47  69 CALM      30.09R
GARRISON         N/A     64  46  52 CALM      30.07R
HETTINGER ARPT CLOUDY    59  42  53 NE9       30.11R
$$

NDZ004>008-012>016-024-026-027-054-201600-
NORTHEAST NORTH DAKOTA

CITY           SKY/WX    TMP DP  RH WIND       PRES   REMARKS
GRAND FORKS    CLOUDY    65  52  62 NW13      29.95R
GRND FRKS AFB  CLOUDY    64  50  59 N9        29.96R
DEVILS LAKE    SUNNY     64  47  53 NW13      30.02R
$$

NDZ022-023-025-028>030-036>039-047>053-201600-
SOUTHEAST NORTH DAKOTA

CITY           SKY/WX    TMP DP  RH WIND       PRES   REMARKS
FARGO          CLOUDY    65  52  62 NW10      29.97R
JAMESTOWN      CLOUDY    61  51  70 NW6       30.03R
$$





USA.gov is the U.S. government's official web portal to all federal, state and local government web resources and services.